AirNav   TITAN Aviation Fuels
 
 1154 users online  

59MO Hermann Area Hospital Heliport
Hermann, Missouri, USA

GOING TO HERMANN?


FAA INFORMATION EFFECTIVE 07 OCTOBER 2021

Location

FAA Identifier: 59MO
Lat/Long: 38-41-35.7100N 091-27-01.1300W
38-41.595167N 091-27.018833W
38.6932528,-91.4503139
(estimated)
Elevation: 610 ft. / 186 m (estimated)
Variation: 03E (1985)
Time zone: UTC -5 (UTC -6 during Standard Time)
Zip code: 65041

Heliport Operations

Heliport use: Private use, MEDICAL.
Activation date: 11/1974
Control tower: no
ARTCC: KANSAS CITY CENTER
FSS: SAINT LOUIS FLIGHT SERVICE STATION
Attendance: CONTINUOUS
Wind indicator: yes
Segmented circle: no
Lights: SS-SR

Nearby radio navigation aids

VOR radial/distance  VOR name  Freq  Var
FTZr265/22.4FORISTELL VORTAC110.8005E
VIHr014/34.5VICHY VOR/DME117.7006E
COUr101/36.6COLUMBIA VOR/DME110.2000E

Heliport Services

Airframe service: NONE
Powerplant service: NONE

Runway Information

Helipad H1

Dimensions: 40 x 40 ft. / 12 x 12 m
Surface: asphalt/concrete
Runway edge lights: FLD
Runway edge markings: RED LANDING PAD W/WHITE CROSS.
Latitude: 38-41.595167N
Longitude: 091-27.018833W
Elevation: 610.0 ft.
Traffic pattern: leftleft

Heliport Ownership and Management from official FAA records

Ownership: Privately-owned
Owner: HERMANN AREA DISTRICT HOSP.
PO BOX 470
HERMANN, MO 65041
Phone 314-486-2191
Manager: DAN MC KINNEY, ADMIN
PO BOX 470
HERMANN, MO 65041
Phone 314-486-2191
ADDITIONAL CONTACT - GREG STEPHAN - MAINTENANCE DIRECTOR 573-486-2191; MAINTENANCE@HADH.ORG

Additional Remarks

A52-H1 30' BLDG SE.
FOR CD CTC MIZZOU APCH AT 417-868-5620/5619.

Instrument Procedures

There are no published instrument procedures at 59MO.

Some nearby airports with instrument procedures:

KFYG - Washington Regional Airport (22 nm E)
KFTT - Elton Hensley Memorial Airport (27 nm W)
KUUV - Sullivan Regional Airport (31 nm SE)
KMYJ - Mexico Memorial Airport (33 nm NW)
KJEF - Jefferson City Memorial Airport (34 nm W)
 
Loc | Ops | Rwys | IFR | FBO | Links
Com | Nav | Svcs | Stats | Notes
Area around 59MO (Hermann Area Hospital Heliport)
 
Road maps at: MapQuest Bing Google
 
Aerial photo
No photo
 
Sectional chart

 
Airport distance calculator
Flying to Hermann Area Hospital Heliport? Find the distance to fly.

From to 59MO

Sunrise and sunset
Times for 21-Oct-2021
 Local
(UTC-5)
 Zulu
(UTC)
Morning civil twilight06:5511:55
Sunrise07:2212:22
Sunset18:1923:19
Evening civil twilight18:4623:46

Current date and time
Zulu (UTC)  21-Oct-2021 12:43:54
Local (UTC-5)  21-Oct-2021 07:43:54
 
METAR
KFYG 
22nm E 
211215Z AUTO 00000KT 10SM CLR 10/06 A3004 RMK AO2
KMYJ 
33nm NW 
211215Z AUTO 27013G20KT 10SM OVC022 07/05 A3004 RMK AO2
KJEF 
33nm W 
211153Z 28008KT 10SM CLR 09/03 A3008 RMK AO2 SLP173 T00940033 10139 20094 53008
KCOU 
37nm W 
211154Z 29010KT 10SM BKN024 08/04 A3006 RMK AO2 SLP177 T00830039 10117 20078 53007
KVIH 
37nm SW 
211153Z AUTO 27006KT 10SM CLR 08/06 A3007 RMK AO2 SLP179 T00780061 10144 20078 53004
KSUS 
38nm E 
211154Z 26006KT 10SM CLR 10/06 A3002 RMK AO2 SLP163 T01000056 10183 20089 53006
TAF
KJEF 
33nm W 
211132Z 2112/2212 28010G17KT P6SM SCT025 TEMPO 2112/2115 BKN025 FM211500 29013G21KT P6SM BKN025 FM220000 31005KT P6SM BKN035
KCOU 
37nm W 
211132Z 2112/2212 28011G18KT P6SM SCT025 TEMPO 2112/2115 BKN025 FM211500 29014G22KT P6SM BKN025 FM220000 32007KT P6SM BKN035
KSUS 
38nm E 
211132Z 2112/2212 27010G16KT P6SM SCT025 TEMPO 2113/2115 BKN025 FM211500 29014G22KT P6SM BKN025 FM220000 30007KT P6SM BKN030 FM220900 VRB04KT P6SM BKN025
NOTAMs
Click for the latest NOTAMs
NOTAMs are issued by the DoD/FAA and will open in a separate window not controlled by AirNav.

 

 
 

Would you like to see your business listed on this page?

 If your business provides an interesting product or service to pilots, flight crews, aircraft, or users of the Hermann Area Hospital Heliport, you should consider listing it here.  To start the listing process, click on the button below
 
Add a business
 

Other Pages about Hermann Area Hospital Heliport

Update a link
 
Copyright © AirNav, LLC. All rights reserved. Privacy Policy  Contact